Tracking 30743 objects as of 21-Jun-2025
HD Live streaming from Space Station
objects crossing your sky now

NOAA 16 DEB

Track NOAA 16 DEB now!
10-day predictions


NORAD ID: 42392
Int'l Code: 2000-055SL
Perigee: 624.2 km
Apogee: 642.6 km
Inclination: 99.0 °
Period: 97.2 minutes
Semi major axis: 7004 km
RCS: Unknown
Launch date: September 21, 2000
Source: United States (US)
Launch site: AIR FORCE WESTERN TEST RANGE (AFWTR)

Note: This is SATELLITE DEBRIS
Your satellite tracking list
Your tracking list is empty




NASA's NSSDC Master Catalog

Two Line Element Set (TLE):
1 42392U 00055SL  25171.00558163  .00026872  00000-0  34614-2 0  9999
2 42392  98.9633  10.4125 0013162  88.6549 271.6167 14.80972089482659
Source of the keplerian elements: AFSPC